Wind_Speed
19 19 13 12 12 10 14 17 20 21 18 15 11 14 12 12 14 16 22 28 32 35 33 31 32 33 32 34 30 33 34 36 38 39 39 35 32 34 38 39 39 41 41 41
14 13 13 16 18 18 20 20 20 21 23 18 19 14 13 14 15 17 24 28 23 25 27 29 32 31 34 32 32 35 34 38 39 38 34 31 34 33 37 39 40 41 42 38
9 10 11 13 22 20 22 20 20 22 20 17 16 13 17 19 14 19 21 23 21 24 26 31 33 35 34 31 35 34 38 39 39 32 33 31 30 34 37 39 41 41 41 37
7 6 1 18 10 12 13 14 13 14 15 14 16 17 19 18 14 18 17 21 22 24 28 32 35 35 34 35 38 41 42 40 34 30 27 29 32 36 38 40 39 37 39 34
7 10 13 17 10 9 6 7 6 10 9 9 13 16 14 11 13 15 17 17 22 26 29 32 34 34 35 37 40 43 50 39 28 25 27 31 36 39 40 38 36 36 36 33
10 5 5 2 10 9 8 7 7 4 5 10 12 13 10 14 15 16 20 24 24 26 27 30 33 34 34 40 43 44 38 27 24 27 31 35 39 40 40 36 35 36 33 33
14 8 7 9 14 15 6 6 12 9 8 15 11 15 17 20 22 27 27 27 28 29 29 31 35 38 41 45 36 27 23 26 29 31 34 37 38 39 39 38 37 36 35 33
13 7 8 13 15 7 10 8 12 19 18 17 20 20 20 25 27 28 31 31 32 32 32 37 39 42 42 33 23 22 27 29 29 32 33 36 38 38 38 38 37 36 35 33
9 3 10 6 10 10 12 21 19 20 21 21 21 23 22 29 32 34 32 31 31 35 36 37 40 36 26 21 23 24 25 29 31 34 36 36 35 35 35 36 36 36 33 31
12 10 10 9 14 20 20 20 21 21 20 22 21 23 28 31 31 30 30 31 29 29 33 35 27 23 24 25 21 24 28 31 33 35 36 36 36 35 34 35 35 35 32 31
10 11 9 17 19 20 20 18 21 23 23 23 21 24 29 30 27 26 23 26 28 31 26 24 24 22 19 20 25 28 30 33 35 37 39 40 39 38 36 33 32 31 31 31
13 17 20 23 21 21 23 25 25 25 23 22 24 25 25 25 24 25 24 24 23 19 18 17 15 18 22 26 30 32 34 36 38 38 40 40 40 38 36 34 32 30 29 30
23 22 22 23 24 26 26 26 24 24 25 24 22 23 23 23 24 25 20 17 15 15 16 17 19 22 26 31 34 36 39 41 42 42 41 40 39 39 38 34 33 32 31 30
21 22 23 25 27 24 22 24 25 25 25 23 22 19 18 19 18 18 17 16 15 15 18 22 25 28 32 36 40 42 43 44 44 45 44 43 40 38 36 36 37 34 31 30
23 24 26 24 24 23 24 26 26 23 21 20 17 15 16 16 16 16 15 14 15 19 22 26 30 32 35 39 42 44 45 47 47 46 44 42 39 38 38 37 37 32 30 28
22 21 21 22 22 25 25 20 20 20 17 15 13 13 13 13 13 14 16 18 21 24 27 31 34 37 40 42 45 47 48 47 40 41 42 40 41 39 39 37 35 30 32 30
23 22 22 23 21 18 19 19 15 13 12 12 13 14 14 14 15 17 19 22 26 30 33 37 41 43 45 47 48 49 47 36 40 44 41 42 39 34 34 37 34 32 31 29
22 21 19 17 17 16 13 12 11 12 13 14 14 15 16 17 19 22 25 28 32 35 39 43 45 48 51 52 52 51 50 46 41 45 39 43 42 40 32 34 31 29 27 26
15 15 15 14 11 10 11 11 12 13 14 14 16 17 18 21 24 28 32 35 38 42 46 49 52 54 55 56 56 54 49 45 41 34 40 42 43 34 28 29 28 25 26 26
13 10 9 9 10 10 11 12 13 13 15 17 18 20 22 26 29 33 36 41 45 49 52 55 55 56 56 54 51 50 44 39 36 32 31 33 32 28 27 27 26 25 24 25
9 9 9 10 10 11 12 12 14 16 18 20 22 25 28 31 35 38 42 46 50 52 54 54 55 54 51 50 47 45 42 36 27 26 32 34 36 29 28 28 29 29 29 30
9 9 9 10 10 11 13 15 18 20 23 25 27 29 32 35 39 43 47 50 52 52 52 53 51 49 48 47 45 41 36 28 27 31 34 32 30 30 29 28 28 28 29 29
10 10 11 11 13 14 17 20 23 24 25 28 31 33 36 40 44 47 49 49 50 50 49 48 46 46 45 43 40 34 31 29 29 30 30 29 29 28 27 26 27 27 26 27
12 13 13 14 16 18 22 24 26 27 28 31 34 37 40 43 45 47 47 46 46 45 44 44 43 42 41 39 35 30 29 27 26 25 25 26 25 24 24 25 25 26 26 25
15 15 16 18 19 23 25 26 27 29 32 34 37 41 43 44 45 45 45 44 43 42 41 41 39 38 37 35 32 29 28 26 25 24 25 25 25 24 24 24 24 25 26 27
16 18 20 21 25 27 26 27 30 32 34 37 40 42 44 44 43 43 42 40 39 39 38 37 36 35 34 33 31 30 28 27 25 25 25 25 25 24 24 25 26 27 26 27
18 21 24 25 25 26 28 30 32 35 38 39 42 44 43 43 42 40 39 38 37 36 35 34 34 34 32 32 31 30 29 28 27 27 27 26 26 26 27 28 28 28 28 27
Wind_Direction
256 261 278 271 279 251 248 250 247 260 261 271 308 272 261 260 248 228 229 228 239 253 263 265 267 277 281 283 285 283 283 293 294 301 300 299 303 305 309 312 313 313 315 318
269 275 279 276 265 262 261 264 266 267 268 270 284 271 266 249 264 246 246 253 256 258 263 266 275 280 279 283 280 286 284 290 293 293 295 295 297 315 312 313 315 314 314 319
251 258 257 274 263 264 258 259 264 267 273 276 290 290 279 277 258 246 243 248 254 250 255 267 274 279 281 279 281 282 285 284 287 291 290 301 313 315 313 314 313 314 316 316
244 245 261 273 244 246 250 255 265 270 270 274 271 264 262 278 246 258 252 245 253 260 263 267 271 277 281 280 284 283 282 280 278 293 310 320 318 314 314 315 314 312 314 316
214 216 264 274 264 250 256 273 281 249 249 274 264 270 300 289 259 254 272 274 281 281 278 278 276 278 279 279 276 284 286 287 297 309 320 322 316 315 316 315 313 310 314 313
209 207 218 261 251 262 257 277 262 282 292 260 281 311 292 259 267 275 286 296 292 290 288 283 281 283 279 278 273 275 285 296 316 330 326 318 317 317 315 317 314 314 317 313
217 226 251 252 258 263 245 223 242 255 288 288 274 279 273 275 284 290 294 293 294 297 294 284 277 279 276 272 273 289 314 325 335 330 319 318 316 317 316 317 317 319 316 311
209 226 257 239 259 238 223 249 263 285 287 292 276 284 279 278 287 288 288 294 293 289 279 279 285 288 274 278 298 328 340 337 322 319 320 318 317 317 316 315 318 316 313 309
224 274 245 244 215 227 255 278 280 288 291 293 289 286 280 279 280 286 293 290 281 283 290 291 283 275 288 311 341 339 323 321 319 320 321 319 317 315 313 312 314 312 309 306
231 267 258 245 249 269 277 287 286 289 291 293 292 288 285 284 292 292 289 295 299 292 287 281 285 300 324 341 331 317 318 318 318 318 318 320 319 318 313 311 311 312 311 310
244 233 255 250 255 278 285 286 288 291 292 292 288 278 283 293 294 299 299 298 299 288 289 298 312 334 331 318 317 315 314 317 319 321 320 321 320 316 312 310 310 310 309 305
252 237 245 252 268 277 281 288 291 294 294 293 290 290 291 293 293 293 297 294 294 300 314 325 319 318 317 315 314 316 318 318 317 318 319 317 316 314 311 309 308 307 306 302
253 266 267 270 272 275 284 290 291 292 295 294 289 287 286 291 288 285 282 290 306 319 315 314 316 316 314 313 313 316 317 318 318 317 316 316 317 316 314 312 309 307 305 303
263 266 264 269 277 284 286 288 292 295 294 293 294 297 290 278 279 289 303 313 316 309 313 315 316 317 316 314 315 317 316 314 313 313 316 317 318 317 314 315 313 305 304 304
266 268 272 276 281 284 286 291 292 293 296 293 294 291 292 298 304 310 309 307 308 311 313 315 315 316 312 311 311 311 311 311 311 312 313 315 317 317 315 313 315 309 305 306
268 268 271 275 276 281 285 286 290 294 294 297 299 302 304 302 299 299 301 307 310 311 312 312 312 311 310 310 311 311 311 308 303 303 309 312 311 314 315 314 313 305 304 306
270 271 271 274 278 282 285 295 298 300 297 294 295 294 293 294 298 300 304 308 311 311 310 311 311 312 312 312 311 310 309 298 297 296 303 311 298 310 307 308 306 303 303 301
266 267 270 273 278 287 291 287 287 285 286 291 295 295 296 296 299 302 305 306 307 310 311 312 313 313 314 313 310 308 305 300 291 290 299 299 297 311 299 299 302 301 301 299
260 262 267 268 280 277 273 273 278 286 292 295 296 295 297 299 302 305 307 310 311 312 313 315 315 316 314 312 310 308 307 303 299 291 289 292 296 302 297 299 303 303 300 295
263 259 251 254 258 263 271 281 288 294 296 297 297 297 300 302 304 307 311 313 314 316 317 317 316 313 312 312 309 308 308 304 299 299 296 298 296 301 302 297 295 292 291 291
238 241 249 258 265 273 280 288 296 300 301 302 303 304 305 307 311 312 314 316 317 317 317 316 313 315 313 312 310 308 307 304 291 279 288 295 293 291 296 293 293 291 285 278
246 251 260 267 276 284 292 298 302 305 306 305 307 308 309 311 313 315 316 317 317 316 316 314 317 316 315 314 313 310 306 300 287 281 283 288 289 292 294 296 297 294 293 289
249 258 265 274 283 290 299 304 304 304 304 304 306 308 311 314 315 316 316 317 317 318 318 319 319 319 320 318 316 311 302 295 292 290 287 288 287 290 294 298 298 297 296 294
257 263 270 278 288 298 301 301 301 303 305 306 309 312 313 314 316 317 317 318 319 320 322 323 325 325 325 325 322 317 308 304 299 294 291 286 285 289 293 297 299 299 298 297
261 264 270 276 285 297 299 299 301 304 307 310 312 313 315 316 317 318 319 321 322 324 325 325 327 330 333 334 332 326 319 315 308 301 296 292 290 290 292 294 297 298 299 296
264 271 272 277 291 296 299 302 304 307 309 311 312 314 316 318 319 320 322 324 324 324 325 326 328 329 332 334 335 332 327 321 317 311 306 301 297 295 295 296 298 299 299 298
260 275 287 289 292 296 300 303 306 307 310 314 315 317 318 319 321 322 323 324 323 323 324 326 327 329 328 328 328 327 325 321 315 312 311 310 308 306 304 302 300 299 298 297
Height
3101 3100 3100 3100 3101 3101 3102 3103 3103 3104 3105 3105 3105 3101 3100 3100 3101 3104 3103 3103 3101 3099 3096 3095 3092 3091 3090 3088 3088 3085 3083 3079 3076 3072 3068 3064 3061 3057 3053 3048 3043 3037 3031 3026
3096 3097 3097 3097 3098 3098 3098 3099 3098 3099 3100 3102 3100 3098 3097 3098 3098 3098 3097 3096 3095 3093 3090 3088 3085 3086 3083 3082 3080 3078 3075 3072 3067 3064 3060 3057 3053 3050 3046 3039 3034 3028 3023 3018
3094 3095 3094 3094 3092 3092 3093 3094 3095 3095 3096 3097 3095 3093 3093 3092 3093 3092 3093 3091 3090 3088 3086 3083 3080 3078 3076 3075 3072 3070 3067 3062 3058 3054 3052 3048 3045 3042 3037 3032 3026 3020 3014 3010
3092 3092 3094 3087 3088 3088 3088 3089 3090 3090 3091 3092 3089 3088 3087 3087 3088 3086 3087 3086 3085 3083 3081 3078 3075 3072 3071 3067 3064 3062 3058 3053 3048 3045 3043 3041 3038 3034 3029 3023 3017 3011 3006 3002
3089 3089 3088 3085 3086 3085 3085 3087 3086 3085 3085 3086 3083 3084 3083 3082 3082 3082 3081 3081 3080 3078 3075 3072 3069 3067 3065 3061 3057 3053 3048 3044 3040 3038 3036 3034 3031 3025 3021 3016 3010 3004 2999 2994
3085 3085 3085 3082 3081 3082 3083 3084 3082 3082 3082 3081 3081 3081 3080 3078 3078 3078 3077 3075 3072 3070 3068 3066 3062 3059 3057 3053 3048 3043 3040 3037 3035 3032 3031 3027 3022 3017 3012 3007 3002 2996 2992 2987
3080 3081 3080 3081 3077 3080 3082 3084 3079 3080 3080 3079 3078 3078 3077 3073 3074 3072 3069 3068 3065 3063 3061 3057 3053 3051 3047 3042 3038 3036 3034 3032 3029 3027 3023 3018 3014 3009 3003 2997 2992 2988 2984 2980
3077 3078 3077 3075 3075 3078 3077 3075 3076 3076 3074 3075 3071 3072 3072 3069 3068 3065 3062 3060 3058 3056 3052 3048 3045 3043 3039 3036 3034 3031 3030 3027 3024 3021 3017 3012 3006 3000 2995 2989 2985 2980 2976 2973
3072 3073 3072 3072 3071 3072 3073 3073 3070 3071 3070 3068 3067 3065 3066 3062 3059 3057 3056 3054 3051 3048 3046 3043 3039 3035 3034 3031 3028 3028 3026 3022 3018 3014 3009 3004 2999 2994 2988 2983 2978 2974 2969 2965
3068 3070 3069 3068 3067 3066 3066 3067 3065 3064 3064 3063 3062 3057 3056 3053 3053 3050 3049 3046 3044 3042 3039 3036 3033 3031 3028 3026 3024 3022 3019 3015 3011 3006 3001 2996 2990 2985 2980 2975 2969 2965 2961 2956
3063 3065 3066 3060 3062 3062 3061 3061 3060 3059 3058 3057 3055 3052 3048 3046 3045 3043 3042 3040 3038 3035 3032 3031 3028 3025 3023 3021 3018 3015 3012 3007 3002 2996 2991 2986 2981 2976 2972 2968 2962 2957 2954 2950
3057 3058 3058 3055 3057 3057 3055 3054 3053 3052 3051 3050 3048 3046 3043 3041 3039 3037 3035 3033 3031 3030 3028 3026 3024 3021 3018 3015 3011 3008 3003 2998 2994 2989 2983 2978 2972 2968 2964 2959 2954 2950 2947 2943
3050 3052 3052 3051 3051 3050 3050 3048 3047 3045 3044 3042 3041 3039 3037 3035 3033 3031 3029 3028 3026 3025 3023 3021 3018 3016 3012 3008 3004 3000 2995 2990 2985 2979 2974 2969 2963 2957 2953 2949 2945 2942 2938 2935
3046 3045 3046 3044 3043 3045 3043 3041 3040 3038 3036 3035 3033 3032 3031 3029 3028 3026 3024 3023 3022 3021 3019 3016 3013 3010 3005 3000 2995 2990 2985 2980 2975 2969 2964 2959 2954 2948 2944 2939 2935 2933 2930 2926
3039 3039 3037 3039 3038 3037 3036 3035 3033 3031 3030 3028 3027 3027 3026 3025 3024 3022 3021 3020 3018 3016 3013 3010 3006 3003 2998 2992 2987 2982 2976 2970 2964 2958 2954 2949 2945 2940 2935 2931 2926 2923 2920 2918
3032 3033 3032 3032 3032 3031 3029 3028 3027 3025 3025 3024 3024 3023 3022 3021 3019 3018 3016 3015 3013 3011 3008 3003 2999 2994 2989 2983 2977 2971 2964 2958 2952 2947 2943 2940 2936 2930 2926 2922 2917 2913 2911 2909
3026 3026 3026 3026 3025 3024 3023 3023 3022 3022 3021 3021 3020 3019 3018 3017 3015 3014 3012 3010 3007 3004 2999 2994 2989 2984 2979 2972 2965 2959 2952 2947 2942 2937 2933 2930 2926 2921 2917 2914 2910 2906 2903 2901
3020 3020 3020 3020 3019 3019 3019 3019 3019 3018 3018 3017 3016 3015 3014 3012 3010 3008 3006 3003 3000 2995 2990 2985 2979 2973 2966 2958 2951 2945 2939 2934 2930 2925 2922 2920 2915 2911 2907 2905 2901 2897 2895 2893
3014 3015 3015 3015 3015 3016 3016 3016 3015 3015 3014 3014 3013 3011 3010 3007 3004 3001 2998 2994 2989 2984 2979 2972 2965 2958 2951 2944 2937 2930 2924 2919 2915 2912 2910 2907 2903 2900 2898 2895 2892 2889 2886 2884
3010 3010 3011 3012 3012 3012 3012 3012 3012 3012 3011 3010 3008 3006 3004 3001 2998 2994 2990 2985 2978 2972 2965 2959 2952 2945 2938 2931 2924 2917 2912 2907 2903 2901 2899 2896 2894 2891 2889 2886 2883 2881 2879 2877
3006 3007 3008 3008 3009 3009 3009 3008 3008 3007 3006 3004 3002 3000 2997 2994 2990 2985 2979 2973 2967 2961 2954 2947 2939 2933 2924 2917 2911 2904 2899 2896 2893 2892 2889 2887 2885 2882 2880 2877 2874 2872 2870 2868
3003 3004 3004 3005 3005 3005 3005 3004 3003 3002 3000 2997 2995 2993 2989 2985 2981 2975 2969 2963 2956 2949 2943 2934 2928 2919 2912 2905 2898 2893 2888 2885 2883 2881 2879 2876 2874 2872 2870 2867 2864 2862 2860 2858
3000 3001 3001 3001 3001 3001 3000 2999 2997 2996 2994 2990 2988 2984 2980 2975 2970 2965 2959 2952 2945 2938 2930 2923 2916 2908 2901 2894 2888 2882 2878 2875 2873 2871 2868 2866 2864 2863 2860 2857 2855 2853 2851 2849
2997 2997 2997 2997 2997 2996 2995 2994 2991 2988 2986 2983 2979 2975 2971 2967 2962 2955 2948 2941 2934 2927 2920 2912 2905 2898 2892 2885 2879 2874 2869 2867 2865 2862 2859 2857 2856 2854 2851 2849 2847 2845 2843 2841
2993 2993 2993 2993 2992 2991 2990 2987 2984 2981 2978 2974 2971 2966 2961 2956 2951 2944 2938 2930 2923 2917 2910 2904 2898 2891 2885 2878 2872 2868 2863 2860 2857 2854 2852 2850 2848 2846 2844 2841 2839 2837 2835 2833
2989 2989 2988 2987 2986 2984 2982 2979 2977 2973 2970 2966 2961 2956 2951 2946 2940 2934 2927 2921 2915 2909 2903 2897 2891 2886 2880 2874 2868 2863 2859 2855 2852 2848 2845 2843 2840 2838 2836 2834 2831 2829 2826 2824
2984 2983 2982 2981 2979 2977 2974 2971 2969 2965 2961 2957 2951 2945 2940 2935 2929 2923 2918 2912 2907 2902 2897 2891 2885 2879 2874 2868 2863 2858 2854 2849 2845 2842 2839 2836 2833 2831 2828 2826 2823 2821 2818 2815